Clinton-Sherman, OK

4:28 PM CDT on October 23, 2017 (GMT -0500)
Clinton-Sherman

Weather History for KCSM - September, 2012

Change the Weather History Date:

Monday, September 3, 2012

  Actual Average Record
Temperature  
Mean Temperature 88 °F -  
Max Temperature 102 °F 89 °F 106 °F (2000)
Min Temperature 75 °F 65 °F 57 °F (2008)
Cooling Degree Days 24    
Growing Degree Days 38 (Base 50)    
Moisture  
Dew Point 60 °F    
Average Humidity 41    
Maximum Humidity 62    
Minimum Humidity 22    
Precipitation  
Precipitation 0.00 in - - ()
Sea Level Pressure  
Sea Level Pressure 29.86 in    
Wind  
Wind Speed 11 mph (SSW)    
Max Wind Speed 14 mph    
Max Gust Speed 22 mph    
Visibility 10 miles    
Events      
Averages and records for this station are not official NWS values.
T = Trace of Precipitation, MM = Missing Value Source: NWS Daily Summary

Daily Weather History Graph

Daily Weather History Graph

Search for Another Location

Airport or City:

Trip Planner

Search our weather history database for the weather conditions in past years. The results will help you decide how hot, cold, wet, or windy it might be!

Date:

Astronomy

Sep. 03, 2012 Rise Set
Actual Time 7:11 AM CDT 8:00 PM CDT
Civil Twilight 6:45 AM CDT 8:26 PM CDT
Nautical Twilight 6:14 AM CDT 8:56 PM CDT
Astronomical Twilight 5:43 AM CDT 9:27 PM CDT
Moon 9:30 PM CDT (9/3) 10:11 AM CDT (9/3)
Length of Visible Light 13h 40m
Length of Day
12h 49m
Waning Gibbous, 90% of the Moon is Illuminated
Sep 3
Waning Gibbous
Sep 8
Last Quarter
Sep 15
New
Sep 22
First Quarter
Sep 29
Full

Hourly Weather History & Observations

Time (CDT) Temp. Heat Index Dew Point Humidity Pressure Visibility Wind Dir Wind Speed Gust Speed Precip Events Conditions
12:53 AM 82.9 °F 83.3 °F 61.0 °F 47% 29.85 in 10.0 mi South 12.7 mph - N/A   Clear
1:53 AM 82.0 °F 83.0 °F 62.1 °F 51% 29.85 in 10.0 mi South 12.7 mph - N/A   Clear
2:53 AM 80.1 °F 81.2 °F 62.1 °F 54% 29.85 in 10.0 mi South 11.5 mph - N/A   Clear
3:53 AM 79.0 °F - 62.1 °F 56% 29.85 in 10.0 mi South 10.4 mph - N/A   Clear
4:53 AM 77.0 °F - 62.1 °F 60% 29.86 in 10.0 mi SSW 9.2 mph - N/A   Clear
5:53 AM 77.0 °F - 62.1 °F 60% 29.87 in 10.0 mi South 11.5 mph - N/A   Clear
6:53 AM 75.9 °F - 62.1 °F 62% 29.88 in 10.0 mi SSW 11.5 mph - N/A   Clear
7:53 AM 78.1 °F - 62.1 °F 58% 29.90 in 10.0 mi SSW 9.2 mph - N/A   Clear
8:53 AM 82.9 °F 83.7 °F 62.1 °F 49% 29.91 in 10.0 mi SSW 12.7 mph - N/A   Clear
9:53 AM 88.0 °F 88.7 °F 63.0 °F 43% 29.91 in 10.0 mi WSW 11.5 mph - N/A   Clear
10:53 AM 93.9 °F 95.2 °F 63.0 °F 36% 29.91 in 10.0 mi West 12.7 mph - N/A   Clear
11:53 AM 96.1 °F 97.3 °F 63.0 °F 33% 29.90 in 10.0 mi West 10.4 mph - N/A   Clear
12:53 PM 98.1 °F 98.6 °F 61.0 °F 29% 29.89 in 10.0 mi SSW 11.5 mph 17.3 mph N/A   Clear
1:53 PM 100.0 °F 99.2 °F 57.0 °F 24% 29.87 in 10.0 mi SW 11.5 mph 20.7 mph N/A   Clear
2:53 PM 100.9 °F 99.6 °F 55.0 °F 22% 29.85 in 10.0 mi South 10.4 mph 21.9 mph N/A   Partly Cloudy
3:53 PM 100.0 °F 98.8 °F 55.9 °F 23% 29.83 in 10.0 mi SSW 12.7 mph 18.4 mph N/A   Clear
4:53 PM 102.0 °F 101.1 °F 57.0 °F 22% 29.82 in 10.0 mi South 12.7 mph 21.9 mph N/A   Clear
5:53 PM 99.0 °F 98.1 °F 57.9 °F 25% 29.81 in 10.0 mi SSW 12.7 mph - N/A   Clear
6:53 PM 98.1 °F 96.8 °F 57.0 °F 25% 29.81 in 10.0 mi SW 11.5 mph - N/A   Clear
7:53 PM 91.9 °F 91.2 °F 59.0 °F 33% 29.81 in 10.0 mi South 5.8 mph - N/A   Clear
8:53 PM 87.1 °F 86.5 °F 59.0 °F 39% 29.83 in 10.0 mi SSW 6.9 mph - N/A   Clear
9:53 PM 82.0 °F 82.7 °F 61.0 °F 49% 29.84 in 10.0 mi South 4.6 mph - N/A   Clear
10:53 PM 88.0 °F 87.9 °F 61.0 °F 40% 29.85 in 10.0 mi South 11.5 mph - N/A   Clear
11:53 PM 84.9 °F 85.0 °F 61.0 °F 44% 29.85 in 10.0 mi South 13.8 mph - N/A   Clear